(289029) = 2004 TZ123 = 2006 DP156

Discovered at Socorro on 2004-10-07 by LINEAR.

Orbit

Orbit type: Main Belt

Note: WebGL enabled browser required.

epoch2024-03-31.0
epoch JD2460400.5
perihelion date2022-07-31.50611
perihelion JD2459792.00612
argument of perihelion (°)27.12257
ascending node (°)22.81128
inclination (°)2.33812
eccentricity0.2499577
perihelion distance (AU)2.0078046
Tisserand w.r.t. Jupiter3.3
ΔV w.r.t. Earth (km/sec)9.0
semimajor axis (AU)2.6769218
mean anomaly (°)136.93257
mean daily motion (°/day)0.22503530
aphelion distance (AU)3.346
period (years)4.38
P-vector [x]0.64381868
P-vector [y]0.69443149
P-vector [z]0.32134469
Q-vector [x]-0.76501460
Q-vector [y]0.57548699
Q-vector [z]0.28908024
absolute magnitude17.18
phase slope0.15
uncertainty0
referenceE2024-GD4
observations used242
oppositions13
arc length (days)11876
first opposition used1991
last opposition used2024
residual rms (arc-secs)0.70
perturbers coarse indicatorM-v
perturbers precise indicator003Ek
first observation date used1991-10-04.0
last observation date used2024-04-09.0
computer nameMPCLINUX
JD of orbit computation2456639.736356
perihelion JD uncertainty (days)8.7655E-05
argument of perihelion uncertainty (°)1.2463E-04
ascending node uncertainty (°)1.1953E-04
inclination uncertainty (°)7.2427E-06
eccentricity uncertainty 9.9714E-08
perihelion distance uncertainty (AU)2.6093E-07
Minimum Orbit Intersection Distances (in AU)
for orbit epoch: 2460400.5, reference: E2024-GD4
Mercury1.69217
Venus1.28632
Earth1.01883
Mars0.51195
Jupiter2.04573
Saturn6.49586
Uranus15.3536
Neptune27.2868

Observations

234 total observations over interval: 1991 10 04.44841 – 2023 01 14.361826
These data are available for download (format description).

Date (UT) J2000 RA J2000 Dec Magn Location Ref
1991 10 04.44841 02 11 13.88 +13 13 27.2   691 – Steward Observatory, Kitt Peak-Spacewatch MPS 286896
1991 10 04.46989 02 11 13.14 +13 13 25.7 19.9 V 691 – Steward Observatory, Kitt Peak-Spacewatch MPS 286896
1991 10 04.49578 02 11 12.25 +13 13 24.6   691 – Steward Observatory, Kitt Peak-Spacewatch MPS 286896
2004 09 17.27406 00 26 02.12 +00 59 43.3 19.7   704 – Lincoln Laboratory ETS, New Mexico MPS 120576
2004 09 17.28573 00 26 01.54 +00 59 40.1 20.2   704 – Lincoln Laboratory ETS, New Mexico MPS 120576
2004 09 17.29741 00 26 01.01 +00 59 38.4 19.9   704 – Lincoln Laboratory ETS, New Mexico MPS 120576
2004 09 17.30909 00 26 00.43 +00 59 36.0 19.7   704 – Lincoln Laboratory ETS, New Mexico MPS 120576
2004 09 17.32078 00 25 59.87 +00 59 33.9 20.0   704 – Lincoln Laboratory ETS, New Mexico MPS 120576
2004 10 07.27782 00 09 21.45 -00 16 28.8 19.7   704 – Lincoln Laboratory ETS, New Mexico MPS 117835
2004 10 07.28852 00 09 20.83 -00 16 31.5 19.6   704 – Lincoln Laboratory ETS, New Mexico MPS 117835
2004 10 07.29921 00 09 20.37 -00 16 33.9 19.9   704 – Lincoln Laboratory ETS, New Mexico MPS 117835
2004 10 07.30991 00 09 19.81 -00 16 36.0 19.9   704 – Lincoln Laboratory ETS, New Mexico MPS 117835
2004 10 07.32058 00 09 19.17 -00 16 38.2 19.8   704 – Lincoln Laboratory ETS, New Mexico MPS 117835
2004 10 09.19660 00 07 49.03 -00 22 56.7 19.5   704 – Lincoln Laboratory ETS, New Mexico MPS 117835
2004 10 09.20731 00 07 48.52 -00 22 59.3 19.9   704 – Lincoln Laboratory ETS, New Mexico MPS 117835
2004 10 09.21803 00 07 48.03 -00 23 01.9 19.5   704 – Lincoln Laboratory ETS, New Mexico MPS 117835
2004 10 09.22875 00 07 47.49 -00 23 03.3 20.5   704 – Lincoln Laboratory ETS, New Mexico MPS 117835
2004 10 09.23946 00 07 46.95 -00 23 06.1 19.9   704 – Lincoln Laboratory ETS, New Mexico MPS 117835
2005 10 24.62738 10 42 06.359 +10 08 16.63 20.9 R 568 – Maunakea MPS 167085
2005 10 24.63275 10 42 06.810 +10 08 14.18 20.9 R 568 – Maunakea MPS 167085
2005 10 24.63795 10 42 07.272 +10 08 11.59 20.7 R 568 – Maunakea MPS 167085
2005 10 31.60629 10 51 51.044 +09 10 48.67 20.9 R 568 – Maunakea MPS 167085
2005 10 31.61162 10 51 51.482 +09 10 46.01 21.1 R 568 – Maunakea MPS 167085
2005 10 31.61704 10 51 51.905 +09 10 43.33 20.9 R 568 – Maunakea MPS 167085
2006 02 27.25615 11 33 41.78 +05 08 06.1 21.3 V 691 – Steward Observatory, Kitt Peak-Spacewatch MPS 166334
2006 02 27.28684 11 33 40.13 +05 08 16.4 21.3 V 691 – Steward Observatory, Kitt Peak-Spacewatch MPS 166334
2006 02 27.30413 11 33 39.24 +05 08 20.9 21.3 V 691 – Steward Observatory, Kitt Peak-Spacewatch MPS 166334
2006 03 03.27112 11 30 10.82 +05 28 43.6   691 – Steward Observatory, Kitt Peak-Spacewatch MPS 166334
2006 03 03.28851 11 30 09.84 +05 28 49.1   691 – Steward Observatory, Kitt Peak-Spacewatch MPS 166334
2006 03 03.30620 11 30 08.87 +05 28 54.7   691 – Steward Observatory, Kitt Peak-Spacewatch MPS 166334
2007 04 22.28651 15 51 57.01 -21 46 56.2 21.2 R 807 – Cerro Tololo Observatory, La Serena MPS 211536
2007 04 22.35389 15 51 54.15 -21 46 50.6   807 – Cerro Tololo Observatory, La Serena MPS 211536
2009 11 21.50298 09 05 41.89 +19 45 45.0 21.6 V G96 – Mt. Lemmon Survey MPS 304870
2009 11 21.51159 09 05 42.21 +19 45 44.2 21.2 V G96 – Mt. Lemmon Survey MPS 304870
2009 11 21.52045 09 05 42.57 +19 45 43.4 21.5 V G96 – Mt. Lemmon Survey MPS 304870
2009 11 21.52925 09 05 42.93 +19 45 42.5 21.4 V G96 – Mt. Lemmon Survey MPS 304870
2009 12 20.34881 09 13 22.90 +19 49 36.8 21.2 V G96 – Mt. Lemmon Survey MPS 308620
2009 12 20.35513 09 13 22.80 +19 49 38.1 20.7 V G96 – Mt. Lemmon Survey MPS 308620
2009 12 20.36161 09 13 22.69 +19 49 38.9 20.6 V G96 – Mt. Lemmon Survey MPS 308620
2009 12 20.36801 09 13 22.62 +19 49 39.3 20.8 V G96 – Mt. Lemmon Survey MPS 308620
2010 01 11.21996 09 00 58.61 +21 00 39.2 20.8 V 691 – Steward Observatory, Kitt Peak-Spacewatch MPS 310175
2010 01 11.23772 09 00 57.65 +21 00 44.4 20.1 V 691 – Steward Observatory, Kitt Peak-Spacewatch MPS 310175
2010 01 11.25548 09 00 56.70 +21 00 48.1 20.3 V 691 – Steward Observatory, Kitt Peak-Spacewatch MPS 310175
2010 01 15.25980 08 57 18.10 +21 16 54.0 20.1 V 691 – Steward Observatory, Kitt Peak-Spacewatch MPS 310175
2010 01 15.27752 08 57 17.04 +21 16 58.4 20.1 V 691 – Steward Observatory, Kitt Peak-Spacewatch MPS 310175
2010 01 15.29523 08 57 16.01 +21 17 02.8 20.1 V 691 – Steward Observatory, Kitt Peak-Spacewatch MPS 310175
2013 09 14.40846 03 45 36.85 +20 22 10.9 19.9 V G96 – Mt. Lemmon Survey MPS 477581
2013 09 14.41686 03 45 37.30 +20 22 12.5 19.7 V G96 – Mt. Lemmon Survey MPS 477581
2013 09 14.42539 03 45 37.74 +20 22 15.5 20.4 V G96 – Mt. Lemmon Survey MPS 477581
2013 09 14.43391 03 45 38.16 +20 22 17.9 20.6 V G96 – Mt. Lemmon Survey MPS 477581
2013 09 28.48116 03 55 29.81 +21 16 24.4 20.2 V G96 – Mt. Lemmon Survey MPS 479905
2013 09 28.48532 03 55 29.92 +21 16 25.2 19.9 V G96 – Mt. Lemmon Survey MPS 479905
2013 09 28.48949 03 55 30.01 +21 16 26.6 20.2 V G96 – Mt. Lemmon Survey MPS 479905
2013 09 28.49362 03 55 30.13 +21 16 27.5 20.5 V G96 – Mt. Lemmon Survey MPS 479905
2013 10 09.40460 03 58 44.16 +21 47 06.7 19.9 V G96 – Mt. Lemmon Survey MPS 482160
2013 10 09.41122 03 58 44.18 +21 47 07.8 19.9 V G96 – Mt. Lemmon Survey MPS 482160
2013 10 09.41786 03 58 44.22 +21 47 08.5 19.7 V G96 – Mt. Lemmon Survey MPS 482160
2013 10 09.42452 03 58 44.22 +21 47 09.6 19.7 V G96 – Mt. Lemmon Survey MPS 482160
2013 10 16.44818 03 58 31.65 +22 01 14.4 19.4 V G96 – Mt. Lemmon Survey MPS 483485
2013 10 16.45339 03 58 31.57 +22 01 14.9 19.5 V G96 – Mt. Lemmon Survey MPS 483485
2013 10 16.45862 03 58 31.51 +22 01 15.3 19.6 V G96 – Mt. Lemmon Survey MPS 483485
2013 10 16.46384 03 58 31.44 +22 01 16.0 19.6 V G96 – Mt. Lemmon Survey MPS 483485
2013 10 25.29731 03 55 43.42 +22 12 10.4 19.7 V 691 – Steward Observatory, Kitt Peak-Spacewatch MPS 483485
2013 10 25.31506 03 55 42.85 +22 12 11.2 19.8 V 691 – Steward Observatory, Kitt Peak-Spacewatch MPS 483485
2013 10 25.33281 03 55 42.31 +22 12 12.3 19.7 V 691 – Steward Observatory, Kitt Peak-Spacewatch MPS 483485
2013 10 25.55062 03 55 35.795 +22 12 23.83 19.5 r F51 – Pan-STARRS 1, Haleakala MPS 485095
2013 10 25.56039 03 55 35.478 +22 12 24.15 19.4 r F51 – Pan-STARRS 1, Haleakala MPS 485095
2013 10 26.78002 03 54 58.83 +22 13 13.3 19.4 R D29 – Purple Mountain Observatory, XuYi Station MPS 485095
2013 10 26.83299 03 54 57.01 +22 13 14.9 20.6 R D29 – Purple Mountain Observatory, XuYi Station MPS 485095
2013 11 01.56059 03 51 26.832 +22 15 04.69 19.6 g F51 – Pan-STARRS 1, Haleakala MPS 487022
2013 11 01.57267 03 51 26.296 +22 15 04.64 19.4 r F51 – Pan-STARRS 1, Haleakala MPS 487022
2013 11 01.58415 03 51 25.776 +22 15 04.51 19.2 r F51 – Pan-STARRS 1, Haleakala MPS 487022
2013 11 02.26803 03 50 57.43 +22 15 02.2 19.5 V 691 – Steward Observatory, Kitt Peak-Spacewatch MPS 487022
2013 11 02.28580 03 50 56.65 +22 15 02.8 19.4 V 691 – Steward Observatory, Kitt Peak-Spacewatch MPS 487022
2013 11 02.30358 03 50 55.83 +22 15 02.5 20.4 V 691 – Steward Observatory, Kitt Peak-Spacewatch MPS 487022
2013 11 04.58427 03 49 13.622 +22 14 36.82 19.6 g F51 – Pan-STARRS 1, Haleakala MPS 487022
2013 11 04.59635 03 49 13.044 +22 14 36.42 19.8 g F51 – Pan-STARRS 1, Haleakala MPS 487022
2013 11 07.25569 03 47 06.18 +22 13 23.6 19.5 V 691 – Steward Observatory, Kitt Peak-Spacewatch MPS 487022
2013 11 07.27342 03 47 05.24 +22 13 22.5 19.4 V 691 – Steward Observatory, Kitt Peak-Spacewatch MPS 487022
2013 11 07.29116 03 47 04.29 +22 13 22.9 20.3 V 691 – Steward Observatory, Kitt Peak-Spacewatch MPS 487022
2013 11 08.35570 03 46 10.75 +22 12 42.0 19.2 V 703 – Catalina Sky Survey MPS 487022
2013 11 08.35627 03 46 10.69 +22 12 41.9 19.2 V 703 – Catalina Sky Survey MPS 487022
2013 11 08.36440 03 46 10.26 +22 12 41.3 18.8 V 703 – Catalina Sky Survey MPS 487022
2013 11 08.36497 03 46 10.20 +22 12 41.7 18.9 V 703 – Catalina Sky Survey MPS 487022
2013 11 08.37309 03 46 09.71 +22 12 41.0 19.0 V 703 – Catalina Sky Survey MPS 487022
2013 11 08.37367 03 46 09.79 +22 12 40.5 19.3 V 703 – Catalina Sky Survey MPS 487022
2013 11 08.38179 03 46 09.29 +22 12 42.1 19.2 V 703 – Catalina Sky Survey MPS 487022
